Regional Weather Roundup
Issued by NWS

Home | Current Version | Previous Version | Graphics & Text | Print | Product List | Glossary On
Versions: 1 2 3 4 5 6 7 8 9 10 11 12 13 14 15 16 17 18 19 20 21 22 23 24 25 26 27 28 29 30 31 32 33 34 35 36 37 38 39 40 41 42 43 44 45 46 47 48 49 50
230
ASUS45 KSLC 111510
RWRUT

UTAH REGIONAL WEATHER ROUNDUP
NATIONAL WEATHER SERVICE SALT LAKE CITY UT
800 AM MST THU FEB 11 2016

UTZ001>011-023>025-111600-

NORTHERN UTAH

CITY           SKY/WX    TMP DP  RH WIND       PRES   REMARKS
BRIGHAM CITY   CLOUDY    25  23  92 CALM      30.48S
HILL AFB       NOT AVBL
LOGAN          FOG       21  20  96 W5        30.46R VSB 1/4 WCI  15
OGDEN          MOCLDY    24  21  88 S6        30.45F FOG     WCI  17
PROVO AIRPORT  FOG       19  18  93 CALM      30.49R VSB 1/16
SALT LAKE CITY FOG       28  27  96 SE7       30.47F VSB 1/2 WCI  21
VERNAL         CLOUDY    11   8  88 CALM      30.44S FOG
WENDOVER       CLOUDY    28  25  86 CALM      30.48S
HEBER CITY     PTCLDY     3   0  85 CALM      30.45S FOG
WEST JORDAN    CLOUDY    28  28 100 S5        30.46F VSB 1   WCI  23

$$

UTZ012>022-026-027-111600-

SOUTHERN/CENTRAL UTAH

CITY           SKY/WX    TMP DP  RH WIND       PRES   REMARKS
BLANDING       PTCLDY    25  19  78 W3        30.47R
BRYCE CANYON   PTCLDY    16   5  62 W12       30.45R WCI   3
CEDAR CITY     MOCLDY    17  14  88 E5        30.39R WCI  10
DELTA          CLOUDY    11   9  92 S5        30.47S VSB 1/4 WCI   2
HANKSVILLE     MOCLDY    25  23  93 CALM      30.47R
MILFORD        FOG        8   5  87 CALM      30.44R VSB<1/4
MOAB/CYNLANDS  PTCLDY    25  22  88 CALM      30.43R
PRICE          PTCLDY    23  15  71 NE6       30.40R WCI  16
ST GEORGE      MOSUNNY   36  23  60 CALM      30.38R
KANAB          PTCLDY    32  25  74 NE5       30.41R WCI  27

$$

REGIONAL REPORTS     COLORADO/ARIZONA

CITY           SKY/WX    TMP DP  RH WIND       PRES   REMARKS
CRAIG, CO      CLOUDY     0  -4  83 CALM      30.42S
GRAND JUNCTION CLOUDY    21  18  88 SE8       30.44R WCI  11
RIFLE          CLOUDY    15  10  80 S3        30.47R
MONTROSE       CLOUDY    22  13  68 S9        30.46R WCI  12
CORTEZ         CLOUDY    19  13  77 E7        30.41R WCI  10
PAGE, AZ       MOCLDY    33  28  81 CALM      30.41R
GRAND CANYON   MOCLDY    22  17  81 NE5       30.40R WCI  16
KINGMAN        PTCLDY    33 N/A N/A E3        30.27R
FLAGSTAFF      PTCLDY    21  15  78 CALM      30.41R

$$

REGIONAL REPORTS    NEVADA/IDAHO/WYOMING

CITY           SKY/WX    TMP DP  RH WIND       PRES   REMARKS
LAS VEGAS, NV  PTCLDY    49  26  41 SW3       30.23R
ELY            MOCLDY    12   5  73 S14       30.42R WCI  -3
ELKO           CLOUDY     9   5  84 E7        30.43S WCI  -2
POCATELLO, ID  CLOUDY    20  17  88 E9        30.40F WCI   9
BURLEY         CLEAR     24  22  91 E5        30.35F WCI  18
EVANSTON, WY   CLOUDY    23   9  55 SW15      30.38F WCI  10
ROCK SPRINGS   CLOUDY    28  15  58 SW12      30.35R WCI  18

$$




USA.gov is the U.S. government's official web portal to all federal, state and local government web resources and services.